STARLINK-1027, 44732

Orbit data source: Space-Track

STARLINK-1027, 44732 is a payload satellite owned by SpaceX/Seattle (US) in LEO that was launched on Mon, 11 Nov 2019 UTC via an FALCON 9 launch vehicle from the Air Force Eastern Test Range (AFETR). Payloads include a variety of satellites, spacecraft, and rockets equipped with specific instruments for various scientific and technological missions. These include communications satellites like Starlink; space stations such as the ISS; scientific satellites like the Hubble; Earth observation satellites from companies like Planet Labs, Umbra, and HawkEye 360; GPS; miniature CubeSats for education and research; and military/defense satellites.

Loading next visibility...
STARLINK-1027 details
Identifier
44732, 2019-074V
Orbit
LEO
Last TLE update6 hours ago
Origin
Flag of USSpaceX/Seattle (US)
ManufacturerSpaceX/Seattle
MissionOperational Commercial Communications
Bus & MotorSTARLINK, Unknown motor
Mass260 kg wet, ~248 kg dry
Launch date (UTC)
2019-11-11 (5 years ago)
Launch vehicle
FALCON 9
Launch site
Air Force Eastern Test Range (AFETR)
Object type
Payload
Rocket body
Debris
Shape & HBRBox + 1 Pan, 8.86 m
Radar Cross Section13.562 m², Large (>1 m²)

Expand to show TLE details & history

TLE from 6 hours ago
0 STARLINK-1027
1 44732U 19074V   24339.09338586  .00002279  00000-0  17183-3 0  9997
2 44732  53.0535 114.3240 0001278  92.7153 267.3983 15.06400594279216
Epoch: 2024-12-04T02:14Z
Definitive object data (Epoch: 2024-12-04T02:14:28.538Z)
Latitude0.00005°
Longitude7.31164°
Altitude548.129 km
Speed7.589 km/s
True Right ascension07h 37m 17s
True Declination0° 00' 00"
Sunlit
Object was in full shadow at TLE epoch
Visualization TLE readout
Latitude-47.45408°
Longitude-48.40859°
Altitude564.266 km
Speed7.578 km/s
Apparent Right ascension22h 48m 40s
Apparent Declination-72° 38' 24"
Sunlit
Object is in daylight
Visualization observer readout
Local Sidereal Time06:12:58
Azimuth202.773° SW
Elevation-44.006°
Doppler factor1
Orbital elements
Apogee altitude548.366 km
Perigee altitude546.596 km
Semi-major axis6,925.618 km
Eccentricity0.0001278
Inclination53.0535°
RAAN114.324°
Arg. of periapsis92.7153°
True anomaly267.38367°
Mean anomaly267.3983°
Eccentric anomaly267.39099°
Mean motion3.76578 °/min
BSTAR0.00017183
Orbital period95.6 mins
Loading maneuver chart data...

STARLINK-1027 Visibility forecast

Observer location: undefined°, undefined

Span
Click to sort rows by Start time (UTC) header in descending order
Start Az.
Max El. time (UTC)
Max El. Az.
Max El.
End time (UTC)
End Az.
7 mins2024-12-04 11:57:52.426Z222.692° SW2024-12-04 12:01:52.426Z86.63° E42.835°2024-12-04 12:04:52.426Z53.828° ENE
4 mins2024-12-04 13:39:52.426Z305.149° NW2024-12-04 13:40:52.426Z325.165° NNW21.004°2024-12-04 13:43:52.426Z22.344° NNE
4 mins2024-12-04 17:01:52.426Z358.774° N2024-12-04 17:02:52.426Z18.064° NNE18.244°2024-12-04 17:05:52.426Z66.049° ENE
6 mins2024-12-04 18:40:52.426Z317.21° NNW2024-12-04 18:42:52.426Z13.991° NNE43.738°2024-12-04 18:46:52.426Z124.19° SE
|